QPF
0.00 0.00 0.00 0.00 0.00 0.01 0.02 0.02 0.04 0.01 0.06 0.31 0.54 0.35 0.13 0.03 0.00 0.00 0.00 0.00 0.00 0.00 0.00 0.00 0.00 0.00 0.00 0.00 0.00 0.00 0.00 0.00 0.00 0.00 0.00 0.00 0.00 0.00 0.00 0.00 0.00 0.00 0.00 0.00
0.00 0.00 0.00 0.00 0.00 0.02 0.03 0.08 0.05 0.02 0.11 0.31 0.37 0.42 0.19 0.03 0.01 0.00 0.00 0.00 0.00 0.00 0.00 0.00 0.00 0.00 0.00 0.00 0.00 0.00 0.00 0.00 0.00 0.00 0.00 0.00 0.00 0.00 0.00 0.00 0.00 0.00 0.00 0.00
0.00 0.00 0.00 0.00 0.01 0.03 0.12 0.25 0.16 0.05 0.13 0.24 0.29 0.28 0.28 0.13 0.01 0.00 0.00 0.00 0.00 0.00 0.00 0.00 0.00 0.00 0.00 0.00 0.00 0.00 0.00 0.00 0.00 0.00 0.00 0.00 0.00 0.00 0.00 0.00 0.00 0.00 0.00 0.00
0.00 0.00 0.00 0.01 0.01 0.03 0.17 0.38 0.25 0.11 0.17 0.18 0.32 0.37 0.22 0.12 0.05 0.00 0.00 0.00 0.00 0.00 0.00 0.00 0.00 0.00 0.00 0.00 0.00 0.00 0.00 0.00 0.00 0.00 0.00 0.00 0.00 0.00 0.00 0.00 0.00 0.00 0.00 0.01
0.00 0.00 0.00 0.00 0.01 0.04 0.24 0.39 0.17 0.11 0.19 0.20 0.18 0.32 0.45 0.18 0.05 0.02 0.01 0.00 0.00 0.00 0.00 0.00 0.00 0.01 0.00 0.00 0.00 0.00 0.00 0.00 0.00 0.00 0.00 0.00 0.00 0.00 0.00 0.00 0.00 0.00 0.00 0.00
0.00 0.00 0.00 0.00 0.01 0.10 0.30 0.24 0.11 0.09 0.21 0.23 0.33 0.16 0.27 0.32 0.05 0.02 0.00 0.00 0.00 0.00 0.00 0.00 0.00 0.02 0.02 0.00 0.00 0.00 0.00 0.00 0.00 0.00 0.00 0.00 0.00 0.00 0.00 0.00 0.00 0.00 0.00 0.00
0.01 0.00 0.01 0.01 0.02 0.10 0.21 0.11 0.22 0.38 0.25 0.20 0.24 0.17 0.05 0.05 0.07 0.03 0.01 0.00 0.00 0.00 0.00 0.01 0.01 0.01 0.02 0.02 0.00 0.00 0.00 0.00 0.00 0.00 0.00 0.01 0.00 0.00 0.00 0.00 0.00 0.00 0.00 0.00
0.00 0.00 0.01 0.01 0.01 0.08 0.24 0.12 0.23 0.50 0.28 0.14 0.25 0.15 0.04 0.02 0.02 0.01 0.00 0.00 0.01 0.01 0.03 0.10 0.11 0.05 0.03 0.03 0.04 0.01 0.01 0.00 0.00 0.00 0.00 0.00 0.00 0.00 0.00 0.00 0.00 0.00 0.00 0.00
0.00 0.00 0.01 0.00 0.00 0.04 0.11 0.10 0.23 0.38 0.39 0.12 0.09 0.21 0.22 0.13 0.12 0.05 0.03 0.03 0.03 0.05 0.09 0.15 0.21 0.17 0.04 0.01 0.03 0.02 0.01 0.02 0.00 0.00 0.00 0.00 0.00 0.00 0.00 0.00 0.00 0.00 0.00 0.00
0.00 0.00 0.00 0.00 0.00 0.03 0.06 0.04 0.17 0.39 0.40 0.14 0.09 0.19 0.25 0.35 0.22 0.14 0.08 0.11 0.12 0.15 0.19 0.09 0.04 0.06 0.00 0.00 0.01 0.00 0.00 0.00 0.00 0.00 0.00 0.00 0.00 0.00 0.00 0.00 0.00 0.00 0.00 0.00
0.00 0.00 0.00 0.00 0.01 0.04 0.07 0.04 0.09 0.33 0.33 0.16 0.14 0.17 0.12 0.33 0.36 0.27 0.15 0.17 0.17 0.21 0.21 0.13 0.02 0.00 0.00 0.00 0.00 0.00 0.00 0.00 0.00 0.00 0.00 0.00 0.00 0.00 0.00 0.00 0.00 0.00 0.00 0.00
0.00 0.00 0.00 0.00 0.01 0.02 0.07 0.05 0.04 0.23 0.40 0.31 0.26 0.23 0.16 0.13 0.24 0.26 0.17 0.13 0.15 0.07 0.12 0.08 0.01 0.00 0.00 0.00 0.00 0.00 0.00 0.00 0.00 0.00 0.00 0.00 0.00 0.00 0.00 0.00 0.00 0.00 0.00 0.00
0.00 0.00 0.00 0.00 0.02 0.02 0.06 0.02 0.06 0.31 0.39 0.24 0.30 0.35 0.27 0.16 0.16 0.24 0.33 0.13 0.08 0.05 0.01 0.02 0.00 0.00 0.00 0.00 0.00 0.00 0.00 0.00 0.00 0.00 0.00 0.00 0.00 0.00 0.00 0.00 0.00 0.00 0.00 0.00
0.00 0.00 0.00 0.01 0.02 0.02 0.07 0.03 0.06 0.31 0.43 0.28 0.17 0.13 0.36 0.32 0.29 0.23 0.22 0.16 0.06 0.10 0.04 0.02 0.01 0.00 0.00 0.00 0.00 0.00 0.00 0.00 0.00 0.00 0.00 0.00 0.00 0.00 0.00 0.00 0.00 0.00 0.00 0.00
0.00 0.00 0.01 0.02 0.02 0.03 0.04 0.02 0.05 0.18 0.43 0.29 0.11 0.09 0.16 0.25 0.23 0.28 0.31 0.10 0.04 0.11 0.26 0.25 0.08 0.01 0.01 0.00 0.00 0.00 0.00 0.00 0.00 0.00 0.00 0.00 0.00 0.00 0.00 0.00 0.00 0.00 0.00 0.00
0.00 0.00 0.02 0.04 0.06 0.03 0.03 0.01 0.04 0.19 0.46 0.31 0.12 0.05 0.10 0.11 0.08 0.15 0.49 0.40 0.15 0.08 0.29 0.32 0.15 0.05 0.02 0.02 0.01 0.00 0.00 0.00 0.00 0.00 0.00 0.00 0.00 0.00 0.00 0.00 0.00 0.00 0.00 0.00
0.00 0.01 0.04 0.10 0.09 0.03 0.04 0.02 0.10 0.25 0.33 0.24 0.17 0.04 0.05 0.05 0.04 0.10 0.33 0.51 0.44 0.26 0.23 0.23 0.17 0.10 0.10 0.05 0.01 0.00 0.00 0.00 0.00 0.00 0.00 0.00 0.00 0.00 0.00 0.00 0.00 0.00 0.00 0.00
0.01 0.01 0.01 0.03 0.02 0.01 0.01 0.00 0.12 0.26 0.36 0.22 0.13 0.06 0.04 0.05 0.02 0.09 0.11 0.26 0.39 0.36 0.25 0.13 0.11 0.15 0.15 0.09 0.00 0.00 0.00 0.00 0.00 0.00 0.00 0.00 0.00 0.00 0.00 0.00 0.00 0.00 0.00 0.00
0.01 0.01 0.01 0.00 0.00 0.00 0.00 0.02 0.15 0.36 0.35 0.27 0.11 0.01 0.03 0.04 0.01 0.07 0.08 0.09 0.18 0.27 0.18 0.11 0.10 0.15 0.09 0.02 0.00 0.00 0.00 0.00 0.00 0.00 0.00 0.00 0.00 0.00 0.00 0.00 0.00 0.00 0.00 0.00
0.03 0.03 0.01 0.00 0.00 0.00 0.01 0.06 0.17 0.38 0.28 0.26 0.09 0.00 0.00 0.01 0.01 0.03 0.09 0.10 0.11 0.15 0.16 0.14 0.08 0.04 0.00 0.00 0.00 0.00 0.00 0.00 0.00 0.00 0.00 0.00 0.00 0.00 0.00 0.00 0.00 0.00 0.00 0.00
0.03 0.01 0.01 0.00 0.00 0.02 0.06 0.12 0.18 0.25 0.30 0.20 0.06 0.00 0.00 0.00 0.00 0.02 0.04 0.09 0.09 0.08 0.07 0.05 0.03 0.01 0.00 0.00 0.00 0.00 0.00 0.00 0.00 0.00 0.00 0.00 0.00 0.00 0.00 0.00 0.00 0.00 0.00 0.00
0.00 0.00 0.01 0.00 0.04 0.11 0.13 0.14 0.15 0.12 0.17 0.08 0.01 0.00 0.00 0.01 0.03 0.07 0.06 0.08 0.06 0.03 0.01 0.01 0.00 0.00 0.00 0.00 0.00 0.00 0.00 0.00 0.00 0.00 0.00 0.00 0.00 0.00 0.00 0.00 0.00 0.00 0.00 0.00
0.01 0.01 0.03 0.03 0.08 0.12 0.10 0.10 0.05 0.03 0.04 0.01 0.00 0.01 0.00 0.02 0.08 0.08 0.06 0.08 0.07 0.01 0.01 0.01 0.00 0.00 0.00 0.00 0.00 0.00 0.00 0.00 0.00 0.00 0.00 0.00 0.00 0.00 0.00 0.00 0.00 0.00 0.00 0.00
0.05 0.06 0.03 0.03 0.06 0.03 0.02 0.00 0.00 0.00 0.00 0.00 0.00 0.00 0.00 0.01 0.03 0.03 0.02 0.03 0.02 0.02 0.00 0.00 0.00 0.00 0.00 0.00 0.00 0.00 0.00 0.00 0.00 0.00 0.00 0.00 0.00 0.00 0.00 0.00 0.00 0.00 0.00 0.00
0.03 0.15 0.03 0.00 0.00 0.00 0.00 0.00 0.00 0.00 0.00 0.00 0.00 0.00 0.00 0.00 0.00 0.00 0.00 0.00 0.00 0.00 0.00 0.00 0.00 0.00 0.00 0.00 0.00 0.00 0.00 0.00 0.00 0.00 0.00 0.00 0.00 0.00 0.00 0.00 0.00 0.00 0.00 0.00
0.02 0.11 0.01 0.00 0.00 0.00 0.00 0.00 0.00 0.01 0.00 0.01 0.01 0.00 0.02 0.01 0.00 0.00 0.00 0.00 0.00 0.00 0.00 0.00 0.00 0.00 0.00 0.00 0.00 0.00 0.00 0.00 0.00 0.00 0.00 0.00 0.00 0.00 0.00 0.00 0.00 0.00 0.00 0.00
0.00 0.01 0.00 0.00 0.00 0.00 0.00 0.00 0.02 0.01 0.00 0.01 0.02 0.01 0.01 0.00 0.00 0.00 0.00 0.00 0.00 0.00 0.00 0.00 0.00 0.00 0.00 0.00 0.00 0.00 0.00 0.00 0.00 0.00 0.00 0.00 0.00 0.00 0.00 0.00 0.00 0.00 0.00 0.00
MSLP
1018.62 1018.64 1018.63 1018.88 1019.52 1020.11 1020.65 1021.04 1020.56 1018.65 1018.59 1020.19 1018.45 1015.88 1014.91 1015.00 1014.50 1013.99 1013.76 1012.98 1012.01 1011.31 1010.38 1009.96 1009.44 1008.94 1008.47 1008.13 1008.41 1009.11 1009.56 1010.19 1010.41 1009.71 1009.15 1009.07 1009.09 1008.99 1010.14 1011.90 1013.28 1013.48 1013.59 1012.03
1017.86 1017.85 1018.18 1018.50 1018.86 1019.49 1020.43 1020.45 1019.76 1018.70 1019.08 1018.22 1016.68 1015.67 1014.25 1013.58 1013.31 1012.92 1013.22 1012.46 1011.67 1011.07 1010.76 1010.22 1009.33 1008.61 1008.15 1008.24 1008.40 1008.43 1009.23 1009.97 1010.60 1010.34 1009.83 1009.18 1009.24 1009.29 1009.34 1010.46 1011.86 1012.51 1012.93 1011.80
1017.23 1017.27 1017.59 1018.15 1018.77 1019.33 1020.28 1020.21 1019.15 1018.13 1017.96 1016.83 1016.23 1015.42 1013.24 1012.87 1012.24 1011.84 1012.62 1011.98 1011.48 1011.21 1010.55 1010.01 1009.36 1008.93 1008.61 1008.58 1008.56 1008.57 1008.95 1009.82 1010.22 1010.27 1009.96 1009.89 1010.02 1009.82 1009.71 1010.05 1011.35 1011.73 1011.33 1011.11
1016.58 1016.91 1017.41 1018.00 1018.50 1018.74 1019.57 1018.91 1018.33 1017.41 1015.95 1015.62 1015.22 1014.90 1013.00 1011.58 1010.68 1010.64 1011.28 1011.44 1010.80 1010.59 1010.19 1010.00 1009.52 1009.32 1009.24 1008.76 1008.66 1008.83 1009.26 1010.20 1010.42 1010.23 1010.12 1010.13 1009.91 1009.99 1009.94 1009.99 1010.24 1010.68 1010.25 1010.01
1016.10 1016.64 1016.95 1017.26 1017.69 1017.97 1018.17 1017.63 1017.72 1017.10 1015.53 1015.06 1014.40 1012.44 1011.46 1010.07 1009.88 1008.94 1008.86 1008.47 1008.98 1010.14 1009.42 1008.78 1008.98 1009.28 1009.19 1009.16 1009.20 1009.13 1009.32 1010.30 1010.82 1011.04 1010.54 1010.29 1009.95 1009.50 1009.47 1009.50 1009.76 1010.12 1009.88 1010.10
1015.36 1015.69 1016.03 1016.38 1016.67 1016.99 1016.60 1016.93 1016.90 1016.89 1014.53 1013.80 1012.84 1010.12 1008.74 1008.80 1008.71 1007.92 1007.21 1007.20 1008.84 1008.73 1007.59 1008.25 1008.35 1008.22 1008.46 1008.62 1008.89 1009.05 1009.44 1010.48 1011.51 1011.97 1011.16 1010.72 1010.04 1008.85 1008.49 1008.65 1008.70 1009.38 1009.32 1008.89
1014.63 1014.92 1015.18 1015.31 1015.53 1015.79 1015.96 1016.12 1016.30 1015.55 1013.62 1013.04 1011.03 1010.36 1009.09 1007.69 1007.24 1006.76 1006.59 1007.19 1007.50 1006.04 1007.07 1007.96 1008.33 1008.21 1008.31 1008.58 1008.54 1008.17 1008.94 1010.28 1011.44 1012.32 1012.17 1010.92 1009.04 1007.71 1007.78 1008.38 1008.55 1008.47 1008.64 1009.09
1014.08 1014.14 1014.30 1014.31 1014.42 1014.85 1015.23 1015.03 1015.53 1015.17 1013.52 1011.95 1009.84 1008.61 1008.30 1007.58 1006.91 1006.37 1005.84 1005.98 1004.88 1006.40 1007.58 1008.16 1008.89 1009.00 1009.34 1008.35 1008.61 1008.67 1008.13 1009.60 1011.58 1012.31 1012.28 1010.39 1008.54 1007.51 1007.33 1007.51 1007.70 1007.72 1008.24 1008.89
1013.40 1013.42 1013.47 1013.56 1013.73 1014.03 1014.38 1014.03 1013.93 1014.17 1013.48 1009.58 1009.36 1007.93 1006.48 1005.80 1005.65 1006.09 1005.73 1005.78 1005.84 1006.17 1006.99 1008.16 1008.12 1008.22 1007.14 1007.55 1008.69 1008.44 1008.29 1008.89 1010.66 1012.53 1011.89 1010.18 1008.06 1006.64 1006.52 1007.07 1007.62 1007.51 1008.11 1009.24
1012.71 1012.78 1012.79 1012.78 1012.99 1013.21 1013.44 1012.80 1012.95 1013.41 1012.18 1009.18 1009.19 1007.57 1004.83 1004.77 1005.12 1004.83 1004.37 1005.17 1005.76 1005.62 1006.61 1006.64 1006.81 1007.56 1006.40 1006.74 1006.88 1007.83 1008.94 1009.80 1010.63 1011.53 1011.05 1009.30 1007.24 1006.40 1006.72 1007.45 1007.89 1007.30 1007.93 1008.92
1012.13 1012.14 1012.10 1011.94 1012.01 1012.23 1012.46 1011.64 1011.80 1011.81 1010.69 1008.56 1007.44 1006.25 1004.03 1003.01 1002.89 1003.08 1003.18 1004.72 1004.58 1004.76 1004.87 1006.04 1005.72 1006.26 1005.58 1005.83 1006.06 1006.04 1007.37 1008.90 1010.15 1010.50 1009.93 1008.61 1006.80 1006.41 1006.37 1006.75 1007.22 1007.49 1008.12 1008.94
1011.49 1011.47 1011.35 1011.28 1011.27 1011.30 1011.19 1010.73 1010.75 1010.57 1010.18 1007.09 1006.12 1004.99 1002.79 1001.92 1001.38 1002.27 1002.49 1001.94 1002.85 1003.19 1003.99 1005.22 1005.20 1005.74 1004.64 1004.76 1005.95 1005.50 1006.16 1006.05 1007.48 1007.96 1007.31 1006.36 1006.05 1005.54 1006.01 1006.28 1006.94 1007.77 1008.13 1009.02
1010.72 1010.79 1010.58 1010.49 1010.61 1010.72 1010.46 1009.97 1009.95 1009.97 1009.35 1007.05 1005.78 1003.51 1002.30 1002.12 1001.15 1001.54 1001.94 1002.53 1001.68 1002.50 1002.62 1003.66 1003.88 1004.25 1004.03 1004.32 1004.68 1004.97 1005.10 1005.31 1005.91 1006.63 1006.11 1005.86 1005.83 1005.79 1005.85 1006.36 1006.84 1007.40 1007.93 1008.55
1009.82 1009.91 1009.94 1009.70 1009.99 1009.72 1009.59 1009.44 1008.97 1009.10 1009.53 1007.30 1003.79 1002.96 1002.58 1001.91 1000.86 1001.67 1002.12 1001.31 1001.71 1002.07 1002.98 1003.51 1003.21 1003.61 1002.81 1003.56 1003.43 1003.91 1004.01 1004.57 1005.22 1005.46 1005.10 1005.48 1005.68 1005.58 1005.86 1006.50 1006.90 1007.54 1008.14 1008.50
1008.96 1008.99 1009.03 1009.02 1008.91 1008.78 1008.74 1008.65 1008.36 1008.20 1008.85 1007.11 1004.73 1003.00 1002.09 1001.09 1000.94 1001.18 1001.51 1001.56 1001.33 1002.06 1003.25 1003.73 1003.93 1003.58 1002.98 1003.38 1003.35 1003.36 1003.00 1003.35 1004.19 1004.22 1004.03 1004.55 1005.13 1005.45 1005.65 1006.49 1007.18 1007.66 1008.15 1009.03
1008.18 1008.09 1007.95 1007.90 1008.15 1008.36 1008.35 1007.64 1006.91 1007.04 1007.32 1007.13 1004.85 1003.29 1002.24 1001.18 1001.29 1001.56 1001.63 1001.36 1001.55 1001.82 1003.08 1003.34 1003.32 1003.39 1003.31 1003.49 1003.31 1002.43 1001.87 1001.84 1002.07 1002.81 1003.30 1003.93 1004.47 1005.04 1005.51 1006.42 1007.10 1007.51 1008.23 1009.09
1007.47 1007.46 1007.40 1007.45 1007.65 1007.37 1007.48 1006.72 1006.67 1006.84 1007.13 1006.11 1005.00 1003.21 1002.34 1001.53 1001.12 1001.63 1001.99 1002.12 1001.72 1001.98 1002.81 1003.06 1003.71 1003.93 1003.36 1003.72 1003.01 1001.66 1001.48 1001.36 1001.76 1002.05 1002.98 1004.38 1004.82 1005.57 1005.93 1006.52 1007.21 1007.83 1008.67 1009.25
1006.90 1006.81 1006.77 1006.90 1006.87 1006.96 1006.65 1005.70 1005.18 1006.02 1006.16 1004.91 1003.53 1002.56 1002.23 1001.67 1001.58 1002.01 1002.26 1003.01 1003.34 1003.08 1003.34 1003.65 1003.82 1004.18 1003.99 1003.95 1002.85 1001.92 1001.71 1001.48 1001.84 1002.49 1002.54 1003.41 1004.52 1005.42 1006.31 1006.86 1007.58 1008.44 1009.19 1009.96
1006.56 1006.36 1006.38 1006.55 1006.30 1006.05 1005.49 1005.25 1005.12 1004.88 1005.24 1003.81 1002.54 1001.79 1001.88 1001.38 1001.92 1002.61 1003.39 1003.68 1004.50 1004.17 1003.76 1003.67 1003.74 1004.04 1003.67 1002.61 1001.83 1002.06 1001.39 1001.28 1001.87 1002.68 1002.90 1003.66 1004.56 1005.69 1006.49 1007.17 1008.03 1008.82 1009.83 1010.44
1006.09 1006.49 1006.59 1006.23 1005.85 1005.43 1005.09 1004.64 1004.39 1004.29 1003.23 1002.95 1001.82 1000.79 1001.14 1000.83 1002.32 1003.92 1004.40 1004.44 1004.67 1004.56 1004.68 1004.02 1004.19 1003.81 1002.62 1001.76 1000.90 1001.11 1001.46 1001.38 1001.76 1002.97 1003.94 1004.25 1005.12 1006.02 1006.88 1007.32 1008.04 1009.05 1009.84 1010.36
1005.96 1006.18 1005.90 1005.51 1005.26 1004.96 1004.61 1003.82 1003.70 1002.98 1002.63 1001.54 1000.34 1000.02 1000.13 1001.42 1002.42 1003.48 1004.14 1004.68 1004.72 1004.66 1004.40 1004.08 1004.25 1003.78 1002.42 1001.27 1000.61 1000.85 1001.24 1001.53 1002.04 1002.63 1003.34 1004.01 1004.88 1006.24 1007.17 1008.06 1008.67 1009.46 1009.90 1010.25
1005.33 1005.40 1005.42 1005.45 1005.28 1004.43 1003.73 1002.62 1002.03 1001.88 1001.25 1000.12 999.33 999.28 999.95 1001.36 1001.94 1003.27 1004.63 1004.68 1004.72 1004.70 1004.33 1004.49 1004.19 1001.95 1001.08 1000.63 1000.26 1000.37 1000.74 1001.40 1002.08 1002.78 1003.76 1004.68 1005.55 1006.38 1007.25 1008.05 1008.98 1009.49 1009.75 1010.55
1005.32 1005.46 1005.38 1005.26 1004.50 1003.67 1002.63 1001.66 1001.30 1000.57 999.69 999.13 998.89 999.28 1000.06 1001.48 1002.43 1003.60 1003.91 1004.17 1004.71 1004.69 1004.56 1003.56 1001.71 1000.60 1000.29 1000.04 1000.06 1000.49 1000.77 1001.28 1002.17 1003.27 1003.97 1005.01 1006.11 1006.71 1007.25 1008.22 1008.86 1009.49 1010.21 1011.35
1005.21 1005.16 1004.83 1004.33 1003.33 1002.47 1001.50 1000.88 1000.11 999.14 998.82 998.43 998.83 999.28 1000.05 1001.35 1002.59 1003.33 1004.06 1004.54 1004.44 1004.91 1004.65 1002.75 1000.95 1000.30 1000.02 999.79 999.93 1000.38 1001.16 1001.80 1002.63 1003.68 1004.69 1005.77 1006.58 1007.42 1007.93 1008.62 1009.24 1009.99 1011.09 1011.78
1004.59 1004.42 1003.58 1002.98 1001.96 1001.28 1000.85 1000.16 999.31 998.73 998.05 998.04 998.60 999.31 1000.16 1001.14 1002.44 1002.67 1003.66 1004.53 1004.14 1003.57 1002.23 1001.32 1000.12 999.63 999.57 999.67 999.99 1000.69 1001.28 1001.95 1002.85 1003.97 1005.20 1006.59 1007.31 1008.08 1009.01 1009.19 1009.47 1010.38 1011.41 1012.32
1003.71 1003.29 1002.68 1001.97 1001.66 1001.11 1000.57 999.70 998.96 998.17 997.65 998.27 998.70 999.85 1000.95 1001.63 1001.86 1002.54 1002.91 1003.51 1002.80 1001.60 1001.15 1000.00 999.52 999.30 999.26 999.85 1000.07 1000.62 1001.36 1002.16 1003.21 1004.44 1005.65 1006.78 1007.68 1008.50 1009.12 1009.49 1009.97 1010.80 1011.54 1012.22
1002.84 1002.30 1001.97 1002.14 1001.73 1000.92 1000.10 999.23 998.46 997.61 997.58 998.52 999.29 1000.09 1000.35 1000.93 1002.01 1002.02 1001.43 1000.99 1000.31 999.67 999.61 999.53 999.24 999.27 999.78 1000.35 1000.74 1001.16 1001.75 1002.73 1004.01 1005.19 1005.90 1006.69 1007.58 1008.45 1009.23 1009.86 1010.22 1010.71 1011.16 1011.82
Thickness
5448 5454 5460 5461 5456 5454 5456 5460 5474 5521 5509 5483 5508 5532 5561 5570 5583 5599 5599 5614 5629 5640 5654 5658 5663 5669 5679 5695 5694 5673 5673 5654 5638 5664 5682 5682 5679 5684 5679 5627 5640 5637 5610 5628
5430 5436 5439 5440 5437 5434 5430 5436 5455 5485 5471 5466 5499 5525 5547 5552 5572 5586 5584 5598 5619 5637 5637 5640 5656 5668 5686 5683 5680 5671 5670 5644 5628 5642 5661 5670 5665 5675 5677 5665 5648 5639 5618 5632
5412 5418 5420 5417 5414 5411 5404 5409 5426 5456 5456 5473 5486 5498 5528 5533 5560 5572 5574 5590 5607 5614 5624 5637 5646 5652 5666 5672 5673 5668 5666 5647 5639 5630 5647 5651 5649 5657 5665 5660 5613 5634 5634 5651
5395 5396 5395 5392 5392 5392 5386 5391 5399 5429 5456 5456 5460 5478 5511 5527 5544 5563 5572 5570 5585 5601 5606 5619 5626 5641 5647 5659 5656 5663 5656 5635 5642 5648 5652 5648 5649 5649 5650 5651 5651 5638 5653 5658
5376 5376 5377 5379 5380 5381 5378 5382 5392 5406 5430 5444 5442 5477 5496 5523 5538 5557 5558 5577 5593 5593 5601 5623 5625 5627 5632 5637 5646 5648 5649 5629 5634 5619 5644 5643 5642 5647 5649 5650 5651 5648 5651 5647
5366 5369 5371 5373 5375 5373 5375 5378 5385 5387 5421 5433 5442 5480 5512 5520 5539 5553 5577 5589 5579 5585 5617 5625 5628 5633 5637 5639 5634 5635 5636 5624 5614 5609 5634 5633 5615 5640 5648 5652 5655 5651 5638 5661
5359 5362 5365 5370 5371 5370 5372 5377 5379 5387 5414 5424 5446 5453 5496 5515 5534 5550 5569 5574 5575 5620 5623 5619 5618 5624 5628 5627 5633 5640 5629 5623 5608 5594 5608 5591 5636 5662 5658 5647 5652 5658 5661 5659
5352 5357 5361 5365 5368 5368 5369 5377 5376 5380 5403 5428 5450 5479 5491 5508 5524 5538 5558 5570 5610 5608 5599 5589 5587 5595 5601 5614 5619 5618 5635 5622 5597 5589 5590 5614 5637 5647 5647 5644 5646 5659 5655 5653
5347 5352 5357 5360 5363 5365 5366 5376 5382 5383 5395 5441 5458 5476 5502 5515 5525 5533 5545 5565 5577 5589 5580 5575 5572 5577 5604 5606 5608 5617 5621 5623 5605 5566 5586 5589 5631 5657 5659 5653 5623 5657 5653 5646
5342 5346 5352 5357 5359 5362 5366 5379 5382 5381 5392 5434 5441 5459 5508 5516 5526 5535 5553 5556 5559 5577 5570 5574 5571 5583 5607 5601 5613 5606 5598 5591 5597 5563 5575 5599 5638 5652 5652 5611 5629 5652 5652 5645
5337 5342 5348 5355 5360 5363 5366 5381 5384 5390 5404 5433 5455 5470 5503 5519 5528 5541 5556 5548 5553 5564 5571 5570 5580 5581 5596 5605 5615 5621 5607 5595 5584 5574 5579 5592 5639 5648 5631 5645 5643 5644 5645 5641
5333 5338 5344 5352 5358 5363 5368 5380 5387 5396 5405 5444 5457 5476 5504 5522 5538 5546 5549 5569 5572 5572 5573 5571 5580 5583 5599 5604 5599 5620 5602 5612 5604 5614 5610 5638 5641 5649 5648 5646 5643 5640 5639 5635
5331 5335 5343 5350 5355 5359 5368 5380 5386 5393 5405 5433 5453 5484 5501 5511 5529 5538 5549 5550 5570 5571 5583 5583 5589 5593 5598 5594 5597 5613 5619 5623 5614 5615 5629 5634 5634 5640 5644 5642 5641 5640 5636 5633
5330 5335 5341 5348 5352 5362 5368 5377 5389 5397 5398 5428 5468 5483 5494 5509 5526 5530 5535 5552 5559 5567 5569 5573 5585 5592 5607 5602 5613 5608 5615 5621 5613 5614 5629 5629 5629 5635 5637 5635 5634 5630 5628 5628
5330 5336 5342 5347 5354 5361 5368 5376 5386 5399 5401 5424 5454 5479 5492 5510 5523 5530 5535 5543 5555 5560 5559 5564 5574 5583 5596 5599 5603 5602 5616 5616 5609 5605 5630 5629 5626 5626 5630 5626 5623 5621 5621 5615
5329 5337 5345 5352 5355 5359 5365 5381 5393 5404 5409 5415 5450 5466 5483 5503 5509 5517 5525 5540 5546 5553 5550 5555 5569 5578 5584 5583 5588 5610 5623 5629 5629 5624 5628 5628 5624 5623 5625 5618 5616 5617 5614 5609
5329 5336 5343 5349 5351 5359 5366 5385 5395 5403 5409 5427 5444 5464 5475 5490 5506 5510 5516 5522 5535 5541 5543 5549 5556 5565 5575 5562 5583 5611 5618 5624 5624 5626 5621 5611 5613 5611 5614 5613 5609 5607 5603 5599
5326 5335 5341 5345 5351 5358 5370 5386 5398 5400 5412 5434 5449 5458 5472 5483 5491 5499 5503 5506 5514 5526 5536 5541 5547 5549 5554 5555 5583 5596 5604 5611 5611 5612 5618 5613 5607 5603 5600 5600 5598 5592 5588 5582
5322 5332 5338 5342 5350 5361 5377 5387 5393 5405 5412 5427 5444 5472 5481 5484 5487 5492 5494 5496 5492 5507 5520 5532 5539 5540 5545 5570 5579 5583 5595 5602 5602 5600 5605 5603 5602 5595 5591 5590 5585 5579 5570 5566
5322 5326 5332 5340 5352 5363 5376 5388 5395 5396 5417 5430 5446 5471 5478 5494 5483 5475 5483 5487 5489 5497 5508 5520 5524 5537 5558 5570 5582 5584 5583 5592 5594 5586 5583 5589 5588 5586 5582 5582 5577 5569 5562 5556
5318 5322 5336 5346 5351 5363 5372 5387 5394 5406 5419 5429 5459 5474 5488 5483 5478 5475 5479 5478 5488 5500 5507 5517 5516 5524 5542 5568 5578 5579 5580 5584 5587 5589 5588 5588 5584 5575 5568 5561 5557 5550 5548 5548
5322 5330 5337 5341 5345 5359 5374 5390 5404 5413 5433 5447 5467 5484 5485 5475 5481 5474 5472 5478 5484 5499 5507 5508 5519 5541 5557 5568 5574 5578 5580 5579 5579 5581 5577 5572 5570 5563 5556 5550 5543 5541 5539 5532
5319 5326 5330 5336 5349 5361 5378 5400 5411 5429 5437 5459 5472 5477 5477 5473 5473 5466 5472 5481 5484 5493 5493 5516 5538 5551 5564 5572 5575 5575 5576 5576 5575 5569 5568 5562 5554 5551 5549 5542 5538 5533 5526 5512
5314 5323 5333 5341 5357 5367 5391 5406 5426 5438 5447 5471 5477 5471 5472 5468 5468 5467 5473 5473 5484 5480 5489 5522 5527 5549 5562 5567 5571 5571 5567 5566 5563 5557 5554 5548 5542 5536 5531 5524 5517 5510 5501 5487
5316 5327 5345 5355 5372 5386 5397 5413 5430 5443 5465 5473 5470 5469 5466 5467 5466 5472 5470 5473 5479 5500 5521 5525 5540 5557 5558 5559 5562 5563 5559 5555 5551 5545 5537 5522 5517 5514 5507 5504 5506 5496 5482 5477
5322 5333 5349 5363 5375 5381 5392 5413 5430 5448 5467 5462 5463 5456 5455 5462 5467 5474 5478 5483 5503 5521 5518 5534 5545 5550 5553 5553 5555 5555 5551 5546 5540 5531 5520 5512 5504 5501 5498 5494 5491 5479 5475 5469
5326 5340 5354 5358 5368 5386 5401 5421 5437 5454 5465 5449 5451 5457 5469 5463 5462 5475 5481 5492 5506 5518 5523 5531 5539 5541 5541 5540 5540 5537 5538 5533 5525 5517 5515 5508 5501 5494 5491 5487 5484 5476 5470 5463